YAMAL 202

导读

YAMAL 202(雅玛尔202)是俄罗斯天然气工业股份公司(Gazprom)运营的民用通信卫星,由独联体(CIS)于2003年11月24日成功发射。卫星属于雅玛尔系列,定位地球静止轨道,定点东经约49度,设计用于提供广播通信、电视传输等服务,覆盖俄罗斯及欧亚区域,质量约1320千克,轨道倾角接近0度,是该系列中重要的在轨通信卫星。

基本信息
目录编号:
28089
目录名称:
YAMAL 202
国际标识:
2003-053A
轨道中心:
EARTH
卫星名称:
YAMAL 202
卫星全名:
--
卫星状态:
在轨 (已飞行8268 天)
发射日期:
2003-11-24 UTC
国别 :
俄罗斯(独联体) (CIS)
星等 :
--
轨道信息
数据来源 国际轨道数据 AOE轨道数据
星历时间 2026-07-14T03:11:29+0800
12小时前
查看轨道信息
2026-07-14T00:00:00+0800
15小时前
查看轨道信息
半长轴 42164.672km 42164.981km
偏心率 0.0003267 0.0003052
轨道倾角 6.407° 6.408°
近地点辐角 41.663° 32.362°
升交点赤经 70.614° 70.617°
平近点角 270.809° 232.101°
近地点 35772.759km 35773.975km
远地点 35800.311km 35799.713km
周期 1436.094分钟 1436.110分钟
每日圈数 1.00272 1.002709
详细信息
使用方式:
暂无
2D轨道图
3D轨道图
轨道高度分析图
轨道倾角分析图
轨道综合分析图
查看轨道综合分析图